Orbital Elements at Epoch 2459000.5 (2020-May-31.0) TDB
Reference: JPL 35 (heliocentric ecliptic J2000)
Element | Value | Uncertainty (1-sigma) | Units |
e | .08286633952253933 | 3.7489e-08 | |
a | 3.184021975002127 | 1.8365e-08 | au |
q | 2.920173728974374 | 1.1761e-07 | au |
i | 17.2695758912844 | 3.9597e-06 | deg |
node | 145.8953992538953 | 1.412e-05 | deg |
peri | 205.1576400005914 | 2.8436e-05 | deg |
M | 83.22840699345434 | 2.4195e-05 | deg |
tp | 2458520.731651635317 (2019-Feb-06.23165164) | 0.00014021 | TDB |
period | 2075.212197980307 5.68 | 1.7955e-05 4.916e-08 | d yr |
n | .1734762355147915 | 1.5009e-09 | deg/d |
Q | 3.447870221029879 | 1.9887e-08 | au |
|
| | Orbit Determination Parameters
Additional Information
|